Вернуться в каталог

SL-12 R/B(2)

АктивенHEO
NORAD 26090·ROCKET BODY·🇷🇺 Russia

Запущен Feb 12, 2000 с Baikonur Cosmodrome

Loading…

Ближайшие Пролёты (ближайшие 24 часа)

TLE

СвежийSource: Space-Track

Эпоха: Sep 14, 2026, 13:19 UTC

1 26090U 00011B   26257.55508072 -.00000127  00000-0  00000+0 0  9993
2 26090  16.0202 219.7517 5328865 337.8771 249.3355  1.90707368185203

Отслеживайте SL-12 R/B(2) в реальном времени с AllMySat

Download on the App Store